Change the Weather History Date:

Saturday, October 5, 2013

  Actual Average (PABR) Record (PABR)
Temperature  
Mean Temperature 19 °F 24 °F  
Max Temperature 27 °F 28 °F 41 °F (2012)
Min Temperature 12 °F 20 °F 2 °F (1971)
Degree Days  
Heating Degree Days 46 41  
Month to date heating degree days 201  
Since 1 July heating degree days 2741  
Cooling Degree Days 0    
Month to date cooling degree days  
Year to date cooling degree days  
Moisture  
Dew Point 13 °F    
Average Humidity 81    
Maximum Humidity 85    
Minimum Humidity 75    
Precipitation  
Precipitation 0.00 in 0.02 in 0.20 in (1934)
Month to date precipitation 0.08  
Year to date precipitation 3.85  
Snow  
Snow 0.00 in 0.30 in 3.00 in (1929)
Month to date snowfall 1.3  
Since 1 July snowfall 6.8  
Since 1 September snowfall 5.7  
Snow Depth -    
Sea Level Pressure  
Sea Level Pressure 29.63 in    
Wind  
Wind Speed 12 mph (ESE)    
Max Wind Speed 17 mph    
Max Gust Speed -    
Visibility 10 miles    
Events      
T = Trace of Precipitation, MM = Missing Value Source: NWS Daily Summary

Daily Weather History Graph

Daily Weather History Graph

Search for Another Location

Airport or City:

Trip Planner

Search our weather history database for the weather conditions in past years. The results will help you decide how hot, cold, wet, or windy it might be!

Date:

Astronomy

Oct. 05, 2013 Rise Set
Actual Time 9:15 AM AKDT 7:39 PM AKDT
Civil Twilight 8:12 AM AKDT 8:41 PM AKDT
Nautical Twilight 6:58 AM AKDT 9:55 PM AKDT
Astronomical Twilight 5:33 AM AKDT 11:18 PM AKDT
Moon 11:03 AM AKDT (10/5) 6:58 PM AKDT (10/5)
Length of Visible Light 12h 29m
Length of Day
10h 23m
New Moon, 1% of the Moon is Illuminated
Oct 5
New Moon
Oct 11
First Quarter
Oct 18
Full
Oct 26
Last Quarter
Nov 3
New

Hourly Weather History & Observations

Time (AKDT) Temp. Windchill Dew Point Humidity Pressure Visibility Wind Dir Wind Speed Gust Speed Precip Events Conditions
12:53 AM 19.0 °F 4.5 °F 14.0 °F 81% 29.75 in 10.0 mi ESE 16.1 mph - N/A   Clear
1:53 AM 18.0 °F 3.6 °F 14.0 °F 84% 29.74 in 10.0 mi SE 15.0 mph - N/A   Clear
2:53 AM 18.0 °F 4.2 °F 12.9 °F 81% 29.73 in 10.0 mi SE 13.8 mph - N/A   Clear
3:53 AM 19.0 °F 4.0 °F 14.0 °F 81% 29.73 in 10.0 mi SE 17.3 mph - N/A   Clear
4:53 AM 18.0 °F 4.2 °F 12.9 °F 81% 29.73 in 10.0 mi SE 13.8 mph - N/A   Clear
5:53 AM 16.0 °F 2.3 °F 12.0 °F 84% 29.72 in 10.0 mi SE 12.7 mph - N/A   Clear
6:53 AM 15.1 °F 1.1 °F 10.9 °F 84% 29.70 in 10.0 mi ESE 12.7 mph - N/A   Clear
7:53 AM 15.1 °F 2.5 °F 10.9 °F 84% 29.68 in 10.0 mi ESE 10.4 mph - N/A   Clear
8:53 AM 12.9 °F -0.9 °F 9.0 °F 84% 29.65 in 10.0 mi East 11.5 mph - N/A   Clear
9:53 AM 14.0 °F -1.4 °F 10.0 °F 84% 29.66 in 10.0 mi SE 15.0 mph - N/A   Clear
10:53 AM 12.9 °F 1.6 °F 9.0 °F 84% 29.65 in 10.0 mi SE 8.1 mph - N/A   Clear
11:53 AM 12.0 °F 2.7 °F 7.0 °F 80% 29.63 in 10.0 mi East 5.8 mph - N/A   Clear
12:53 PM 12.9 °F 0.7 °F 8.1 °F 81% 29.62 in 10.0 mi ESE 9.2 mph - N/A   Clear
1:53 PM 17.1 °F 5.0 °F 10.9 °F 77% 29.61 in 10.0 mi ESE 10.4 mph - N/A   Clear
2:53 PM 18.0 °F 7.7 °F 12.0 °F 78% 29.60 in 10.0 mi East 8.1 mph - N/A   Clear
3:53 PM 19.9 °F 12.1 °F 14.0 °F 78% 29.59 in 10.0 mi ENE 5.8 mph - N/A   Clear
4:53 PM 21.9 °F 15.7 °F 16.0 °F 78% 29.57 in 10.0 mi ENE 4.6 mph - N/A   Clear
5:53 PM 21.9 °F 13.4 °F 16.0 °F 78% 29.56 in 10.0 mi East 6.9 mph - N/A   Clear
6:53 PM 21.9 °F 12.5 °F 17.1 °F 82% 29.55 in 10.0 mi East 8.1 mph - N/A   Clear
7:53 PM 21.9 °F 14.5 °F 18.0 °F 85% 29.55 in 10.0 mi ESE 5.8 mph - N/A   Clear
8:53 PM 25.0 °F 14.2 °F 19.0 °F 78% 29.54 in 10.0 mi SE 11.5 mph - N/A   Clear
9:53 PM 26.1 °F 15.0 °F 19.0 °F 75% 29.53 in 10.0 mi SE 12.7 mph - N/A   Clear
10:53 PM 26.1 °F 15.0 °F 19.0 °F 75% 29.53 in 10.0 mi SE 12.7 mph - N/A   Clear
11:53 PM 24.1 °F 14.4 °F 17.1 °F 75% 29.52 in 10.0 mi SE 9.2 mph - N/A   Clear